Hourly Weather Luanda

Today, 10 August, Monday

Time Temperature Precipitation Wind Pressure Humidity
00:00 +24°C° 0 mm 2 mps 756 mmHg 86%
01:00 +23°C° 0 mm 2 mps 756 mmHg 86%
02:00 +24°C° 0.1 mm 2 mps 756 mmHg 84%
03:00 +24°C° 0.1 mm 2 mps 756 mmHg 82%
04:00 +24°C° 0.1 mm 2 mps 755 mmHg 80%
05:00 +24°C° 0 mm 2 mps 755 mmHg 80%
06:00 +24°C° 0 mm 2 mps 756 mmHg 79%
07:00 +24°C° 0 mm 2 mps 756 mmHg 78%
08:00 +26°C° 0 mm 2 mps 756 mmHg 70%
09:00 +27°C° 0 mm 1 mps 757 mmHg 62%
10:00 +28°C° 0 mm 1 mps 757 mmHg 55%
11:00 +29°C° 0 mm 2 mps 756 mmHg 52%
12:00 +30°C° 0 mm 3 mps 756 mmHg 49%
13:00 +32°C° 0 mm 4 mps 755 mmHg 46%
14:00 +30°C° 0 mm 5 mps 754 mmHg 49%
15:00 +29°C° 0 mm 5 mps 754 mmHg 53%
16:00 +28°C° 0 mm 6 mps 753 mmHg 57%
17:00 +27°C° 0 mm 6 mps 753 mmHg 65%
18:00 +24°C° 0 mm 6 mps 754 mmHg 73%
19:00 +23°C° 0 mm 5 mps 754 mmHg 81%
20:00 +22°C° 0 mm 5 mps 755 mmHg 83%
21:00 +22°C° 0 mm 5 mps 756 mmHg 85%
22:00 +22°C° 0 mm 4 mps 756 mmHg 88%
23:00 +21°C° 0 mm 4 mps 756 mmHg 89%

Tomorrow, 11 August, Tuesday

Time Temperature Precipitation Wind Pressure Humidity
00:00 +21°C° 0 mm 3 mps 756 mmHg 90%
01:00 +21°C° 0 mm 3 mps 756 mmHg 91%
02:00 +21°C° 0.1 mm 3 mps 756 mmHg 87%
03:00 +22°C° 0.1 mm 3 mps 756 mmHg 83%
04:00 +22°C° 0.1 mm 3 mps 755 mmHg 80%
05:00 +22°C° 0 mm 3 mps 756 mmHg 80%
06:00 +23°C° 0 mm 2 mps 756 mmHg 80%
07:00 +23°C° 0 mm 2 mps 756 mmHg 81%
08:00 +24°C° 0 mm 2 mps 756 mmHg 74%
09:00 +25°C° 0 mm 1 mps 757 mmHg 66%
10:00 +26°C° 0 mm 1 mps 757 mmHg 59%
11:00 +28°C° 0 mm 2 mps 756 mmHg 54%
12:00 +29°C° 0 mm 3 mps 755 mmHg 49%
13:00 +32°C° 0 mm 4 mps 754 mmHg 44%
14:00 +30°C° 0 mm 4 mps 753 mmHg 47%
15:00 +29°C° 0 mm 5 mps 753 mmHg 51%
16:00 +28°C° 0 mm 5 mps 752 mmHg 54%
17:00 +26°C° 0 mm 5 mps 753 mmHg 62%
18:00 +25°C° 0 mm 5 mps 753 mmHg 69%
19:00 +22°C° 0 mm 5 mps 753 mmHg 77%
20:00 +22°C° 0 mm 4 mps 754 mmHg 79%
21:00 +21°C° 0 mm 4 mps 755 mmHg 81%
22:00 +21°C° 0 mm 3 mps 755 mmHg 83%
23:00 +21°C° 0 mm 3 mps 755 mmHg 83%

Day after tomorrow, 12 August, Wednesday

Time Temperature Precipitation Wind Pressure Humidity
00:00 +21°C° 0 mm 2 mps 756 mmHg 83%
01:00 +21°C° 0 mm 2 mps 756 mmHg 84%
02:00 +21°C° 0 mm 2 mps 755 mmHg 82%
03:00 +22°C° 0 mm 1 mps 755 mmHg 80%
04:00 +22°C° 0 mm 1 mps 755 mmHg 79%
05:00 +22°C° 0 mm 1 mps 755 mmHg 77%
06:00 +23°C° 0 mm 1 mps 755 mmHg 76%
07:00 +23°C° 0 mm 2 mps 756 mmHg 74%
08:00 +24°C° 0 mm 2 mps 756 mmHg 66%
09:00 +26°C° 0 mm 2 mps 756 mmHg 58%
10:00 +28°C° 0 mm 2 mps 756 mmHg 51%
11:00 +29°C° 0 mm 3 mps 756 mmHg 49%
12:00 +29°C° 0 mm 4 mps 755 mmHg 47%
13:00 +30°C° 0 mm 5 mps 754 mmHg 45%
14:00 +29°C° 0 mm 5 mps 753 mmHg 50%
15:00 +28°C° 0 mm 6 mps 753 mmHg 54%
16:00 +27°C° 0 mm 6 mps 752 mmHg 59%
17:00 +24°C° 0 mm 6 mps 753 mmHg 66%
18:00 +23°C° 0 mm 5 mps 754 mmHg 72%
19:00 +22°C° 0 mm 5 mps 754 mmHg 79%
20:00 +21°C° 0 mm 4 mps 755 mmHg 81%
21:00 +21°C° 0 mm 3 mps 756 mmHg 84%
22:00 +21°C° 0 mm 2 mps 756 mmHg 87%
23:00 +22°C° 0 mm 1 mps 756 mmHg 84%

13 August, Thursday

Time Temperature Precipitation Wind Pressure Humidity
00:00 +23°C° 0 mm 1 mps 756 mmHg 82%
01:00 +21°C° 0 mm 0 mps 756 mmHg 80%
02:00 +21°C° 0 mm 0 mps 755 mmHg 80%
03:00 +21°C° 0 mm 0 mps 755 mmHg 79%
04:00 +21°C° 0 mm 0 mps 755 mmHg 78%
05:00 +23°C° 0 mm 1 mps 755 mmHg 79%
06:00 +23°C° 0 mm 1 mps 755 mmHg 79%
07:00 +23°C° 0 mm 1 mps 755 mmHg 80%
08:00 +25°C° 0 mm 1 mps 755 mmHg 70%
09:00 +26°C° 0 mm 1 mps 755 mmHg 61%
10:00 +28°C° 0 mm 1 mps 755 mmHg 51%
11:00 +29°C° 0 mm 3 mps 755 mmHg 50%
12:00 +29°C° 0 mm 4 mps 754 mmHg 49%
13:00 +30°C° 0 mm 5 mps 753 mmHg 47%
14:00 +29°C° 0 mm 5 mps 752 mmHg 51%
15:00 +28°C° 0 mm 6 mps 752 mmHg 55%
16:00 +27°C° 0 mm 6 mps 751 mmHg 59%
17:00 +26°C° 0 mm 6 mps 752 mmHg 66%
18:00 +25°C° 0 mm 5 mps 753 mmHg 74%
19:00 +22°C° 0 mm 5 mps 753 mmHg 81%
20:00 +22°C° 0 mm 4 mps 754 mmHg 84%
21:00 +22°C° 0 mm 3 mps 755 mmHg 86%
22:00 +21°C° 0 mm 2 mps 755 mmHg 88%
23:00 +23°C° 0 mm 2 mps 755 mmHg 84%

14 August, Friday

Time Temperature Precipitation Wind Pressure Humidity
00:00 +23°C° 0 mm 2 mps 755 mmHg 80%
01:00 +24°C° 0 mm 1 mps 755 mmHg 76%
02:00 +24°C° 0.1 mm 1 mps 755 mmHg 76%
03:00 +24°C° 0.1 mm 2 mps 754 mmHg 76%
04:00 +23°C° 0.1 mm 2 mps 754 mmHg 76%
05:00 +24°C° 0 mm 1 mps 754 mmHg 76%
06:00 +24°C° 0 mm 1 mps 755 mmHg 75%
07:00 +22°C° 0 mm 0 mps 755 mmHg 75%
08:00 +25°C° 0 mm 1 mps 755 mmHg 69%
09:00 +26°C° 0 mm 1 mps 755 mmHg 63%
10:00 +27°C° 0 mm 2 mps 755 mmHg 57%
11:00 +28°C° 0 mm 3 mps 754 mmHg 54%
12:00 +29°C° 0 mm 4 mps 753 mmHg 52%
13:00 +30°C° 0 mm 5 mps 752 mmHg 49%
14:00 +29°C° 0 mm 5 mps 752 mmHg 53%
15:00 +28°C° 0 mm 6 mps 751 mmHg 58%
16:00 +27°C° 0 mm 6 mps 750 mmHg 62%
17:00 +24°C° 0 mm 6 mps 751 mmHg 67%
18:00 +23°C° 0 mm 5 mps 751 mmHg 72%
19:00 +22°C° 0 mm 5 mps 752 mmHg 77%
20:00 +22°C° 0 mm 4 mps 753 mmHg 79%
21:00 +22°C° 0 mm 3 mps 753 mmHg 81%
22:00 +21°C° 0 mm 2 mps 754 mmHg 83%
23:00 +23°C° 0 mm 2 mps 754 mmHg 80%

15 August, Saturday

Time Temperature Precipitation Wind Pressure Humidity
00:00 +23°C° 0 mm 2 mps 754 mmHg 77%
01:00 +24°C° 0 mm 2 mps 754 mmHg 74%
02:00 +23°C° 0 mm 2 mps 754 mmHg 74%
03:00 +23°C° 0 mm 2 mps 754 mmHg 75%
04:00 +23°C° 0 mm 2 mps 753 mmHg 75%
05:00 +23°C° 0 mm 1 mps 754 mmHg 74%
06:00 +23°C° 0 mm 1 mps 754 mmHg 72%
07:00 +21°C° 0 mm 0 mps 754 mmHg 71%
08:00 +25°C° 0 mm 1 mps 754 mmHg 64%
09:00 +26°C° 0 mm 1 mps 754 mmHg 57%
10:00 +28°C° 0 mm 1 mps 754 mmHg 49%
11:00 +28°C° 0 mm 2 mps 753 mmHg 48%
12:00 +29°C° 0 mm 4 mps 753 mmHg 47%
13:00 +29°C° 0 mm 5 mps 752 mmHg 46%
14:00 +29°C° 0 mm 5 mps 751 mmHg 49%
15:00 +28°C° 0 mm 6 mps 751 mmHg 52%
16:00 +27°C° 0 mm 6 mps 751 mmHg 55%
17:00 +26°C° 0 mm 5 mps 751 mmHg 61%
18:00 +23°C° 0 mm 5 mps 752 mmHg 68%
19:00 +22°C° 0 mm 4 mps 752 mmHg 74%
20:00 +22°C° 0 mm 4 mps 753 mmHg 76%
21:00 +21°C° 0 mm 3 mps 753 mmHg 78%
22:00 +21°C° 0 mm 2 mps 754 mmHg 80%
23:00 +21°C° 0 mm 2 mps 753 mmHg 81%
Show more